Regional Weather Roundup
Issued by NWS Cleveland, OH

Home | Current Version | Previous Version | Graphics & Text | Print | Product List | Glossary On
Versions: 1 2 3 4 5 6 7 8 9 10 11 12 13 14 15 16 17 18 19 20 21 22 23 24 25 26 27 28 29 30 31 32 33 34 35 36 37 38 39 40 41 42 43 44 45 46 47 48 49 50
000
ASUS41 KCLE 180310
RWRCLE
OHIO REGIONAL WEATHER ROUNDUP
NATIONAL WEATHER SERVICE CLEVELAND, OH
1100 PM EDT WED SEP 17 2014

NOTE: "FAIR" INDICATES FEW OR NO CLOUDS BELOW 12,000 FEET WITH NO
SIGNIFICANT WEATHER AND/OR OBSTRUCTIONS TO VISIBILITY.

OHZ001>008-015>018-024>027-034-035-043-044-180400-
   NORTHWEST OHIO

CITY           SKY/WX    TMP DP  RH WIND       PRES   REMARKS
DEFIANCE       CLEAR     52  48  86 CALM      30.01R
FINDLAY        CLEAR     52  48  86 S3        30.00R
TOLEDO EXPRESS CLEAR     51  49  92 CALM      30.01R
TOLEDO EXEC    PTCLDY    59  46  62 CALM      30.01R
LIMA           CLEAR     51  47  86 CALM      30.01R
$$

OHZ009>014-019>023-028>033-038-089-180400-
   NORTHEAST OHIO

CITY           SKY/WX    TMP DP  RH WIND       PRES   REMARKS
CLE-HOPKINS    MOCLDY    54  50  86 CALM      30.02S
CLE-LAKEFRONT  PTCLDY    62  45  53 N6        29.99S
CUY CO. ARPT   PTCLDY    52  50  93 CALM      30.01S
LORAIN-ELYRIA  MOCLDY    54  50  86 SW3       30.01S
ASHTABULA      CLEAR     49  47  93 CALM      30.01S
AKRON-CANTON   PTCLDY    55  49  80 NE6       30.01R
WOOSTER        CLOUDY    53  50  89 N3        30.02R
MANSFIELD      MOCLDY    54  49  83 NE5       30.01S
YOUNGSTOWN     PTCLDY    49  47  93 E3        30.01R
$$

OHZ042-051>053-060>062-070>072-077>081-180400-
  SOUTHWEST OHIO

CITY           SKY/WX    TMP DP  RH WIND       PRES   REMARKS
CINC-COVINGTON CLEAR     58  49  72 N5        30.01R
CINC-LUNKEN    CLEAR     53  52  96 CALM      30.01S FOG
HAMILTON       CLEAR     50  49  96 CALM      30.02R FOG
DAYTON         CLEAR     54  48  80 CALM      30.02R
WRIGHT-PAT AFB CLEAR     53  50  90 CALM      30.01R
DAYTON GENERAL CLEAR     54  49  83 CALM      30.00S
WILMINGTON     CLEAR     50  47  89 CALM      30.01R
$$

OHZ036-037-039>041-045>050-054>059-063>069-073>076-082>088-180400-
  CENTRAL AND SOUTHEAST OHIO

CITY           SKY/WX    TMP DP  RH WIND       PRES   REMARKS
COLUMBUS       CLEAR     57  49  74 N3        30.00R
OSU AIRPORT    CLEAR     55  48  77 W3        30.00S
BOLTON FIELD   CLEAR     53  48  84 NW6       30.01R
RICKENBACK AFB CLEAR     54  48  80 CALM      30.00R
NEWARK         CLEAR     50  48  93 CALM      30.00R FOG
MARION         CLEAR     53  46  77 CALM      30.01R
LANCASTER      CLEAR     49  46  90 CALM      30.01R
ZANESVILLE     CLEAR     53  49  86 CALM      30.00R
NEW PHILLY     MOCLDY    51  50  96 CALM      30.01R
$$


USA.gov is the U.S. government's official web portal to all federal, state and local government web resources and services.